Snowfall_Accumulation
0.0 0.0 0.0 0.0 0.0 0.0 0.0 0.0 0.0 0.0 0.0 0.0 0.0 0.0 0.0 0.0 0.0 0.0 0.0 0.0 0.0 0.0 0.0 0.0 0.0 0.0 0.0 0.0 0.0 0.0 0.0 0.0 0.0 0.0 0.0 0.0 0.0 0.0 0.0 0.0 0.0 0.0 0.0
0.0 0.0 0.0 0.0 0.0 0.0 0.0 0.0 0.0 0.0 0.0 0.0 0.0 0.0 0.0 0.0 0.0 0.0 0.0 0.0 0.0 0.0 0.0 0.0 0.0 0.0 0.0 0.0 0.0 0.0 0.0 0.0 0.0 0.0 0.0 0.0 0.0 0.0 0.0 0.0 0.0 0.0 0.0
0.0 0.0 0.0 0.0 0.0 0.0 0.0 0.0 0.0 0.0 0.0 0.0 0.0 0.0 0.0 0.0 0.0 0.0 0.0 0.0 0.0 0.0 0.0 0.0 0.0 0.0 0.0 0.0 0.0 0.0 0.0 0.0 0.0 0.0 0.0 0.0 0.0 0.0 0.0 0.0 0.0 0.0 0.0
0.0 0.0 0.0 0.0 0.0 0.0 0.0 0.0 0.0 0.0 0.0 0.0 0.0 0.0 0.0 0.0 0.0 0.0 0.0 0.0 0.0 0.0 0.0 0.0 0.0 0.0 0.0 0.0 0.0 0.0 0.0 0.0 0.0 0.0 0.0 0.0 0.0 0.0 0.0 0.0 0.0 0.0 0.0
0.0 0.0 0.0 0.0 0.0 0.0 0.0 0.0 0.0 0.0 0.0 0.0 0.0 0.0 0.0 0.0 0.0 0.0 0.0 0.0 0.0 0.0 0.0 0.0 0.0 nan nan nan 0.0 0.0 0.0 0.0 0.0 0.0 0.0 0.0 0.0 0.0 0.0 0.0 0.0 0.0 0.0
0.0 0.0 0.0 0.0 0.0 0.0 0.0 0.0 0.0 0.0 0.0 0.0 0.0 0.0 0.0 0.0 nan nan 0.0 0.0 0.0 0.0 0.0 0.0 0.0 0.0 0.0 nan nan nan nan 0.0 0.0 0.0 0.0 0.0 0.0 0.0 0.0 0.0 0.0 0.1 0.1
0.0 0.0 0.0 0.0 0.0 0.0 0.0 0.0 0.0 0.0 0.0 0.0 0.0 0.0 0.0 0.0 nan nan nan 0.0 0.0 0.0 0.0 0.0 0.0 0.0 nan 0.0 nan nan nan nan nan 0.0 0.0 0.0 0.0 0.0 0.0 0.0 0.0 0.0 0.0
0.0 0.0 0.0 0.0 0.0 0.0 0.0 0.0 0.0 0.0 0.0 0.0 0.0 0.0 0.0 0.0 nan nan nan 0.0 0.0 0.0 0.0 0.0 0.0 0.0 0.0 0.0 0.0 0.0 0.0 0.0 0.0 0.0 0.0 0.0 0.0 0.0 0.0 0.0 0.0 0.0 0.0
0.0 0.0 0.0 0.0 0.0 0.0 0.0 0.0 0.0 0.0 0.0 0.0 0.0 0.0 0.0 0.0 nan nan 0.0 0.0 0.0 0.0 0.0 0.0 0.0 0.0 nan nan 0.0 0.0 0.0 0.0 nan nan nan nan nan nan nan 0.3 0.6 1.0 1.7
0.0 0.0 0.0 0.0 0.0 0.0 0.0 0.0 0.0 0.0 0.0 0.0 0.0 0.0 nan 0.0 nan nan nan 0.3 0.0 0.4 0.0 0.0 nan 0.0 nan nan 0.1 0.0 0.1 0.0 0.0 0.0 0.0 0.0 nan nan nan 0.0 0.1 1.7 1.1
0.0 0.0 0.0 0.0 0.0 0.0 0.0 0.0 0.0 0.0 0.0 0.0 0.0 0.0 0.0 0.0 0.0 nan nan 0.2 0.6 0.7 0.4 0.5 0.4 nan nan nan nan 0.1 0.1 0.0 0.0 0.1 0.0 0.0 0.0 0.0 0.0 0.0 0.0 0.2 1.1
0.0 0.0 0.0 0.0 0.0 0.0 0.0 0.0 0.0 0.0 0.0 0.0 0.2 0.2 0.3 0.0 nan nan nan nan nan 1.2 0.3 0.5 0.6 nan nan nan 0.0 nan nan 0.2 1.4 1.4 1.1 0.7 0.6 0.4 0.0 0.0 0.0 0.0 0.0
0.0 0.0 0.0 0.0 0.0 0.0 0.0 0.0 0.0 0.0 0.2 0.1 0.4 0.7 0.4 0.5 0.5 nan nan nan nan 1.5 1.1 0.8 nan nan nan 0.1 nan nan 0.0 1.3 2.0 3.2 1.9 1.0 0.5 0.1 0.0 0.2 0.1 0.1 0.1
0.0 0.0 0.0 0.0 0.0 0.0 0.0 0.0 0.0 0.2 0.4 0.4 0.5 0.5 0.5 0.7 1.0 0.9 0.9 0.7 0.2 0.8 0.1 0.8 0.0 0.6 0.0 0.2 0.4 0.6 0.7 0.9 1.3 2.1 1.5 0.7 0.6 0.9 1.2 1.0 1.7 1.4 1.6
0.0 0.0 0.0 0.1 0.0 0.0 0.0 0.0 0.2 0.0 0.2 0.4 0.5 0.5 3.1 3.3 1.3 1.3 1.4 1.7 1.9 1.1 2.1 3.4 1.8 1.3 1.2 0.9 1.0 1.0 1.0 1.1 1.9 2.5 3.0 2.5 1.9 1.3 1.3 0.9 1.0 1.4 3.3
0.0 0.1 0.2 0.3 0.2 0.0 0.1 0.2 nan nan nan nan nan 2.4 3.4 nan nan nan nan nan nan nan 2.3 3.5 6.2 6.5 3.8 1.5 2.2 2.0 2.1 2.0 2.3 2.7 4.5 3.2 3.5 4.1 3.7 3.3 2.6 2.8 3.4
0.0 0.0 0.3 0.3 0.5 0.5 0.6 0.5 0.9 1.6 nan nan nan nan nan nan nan nan nan nan nan nan 5.4 4.4 9.7 10.4 5.1 2.0 2.2 2.2 3.2 2.8 1.2 3.9 4.7 5.6 5.9 4.9 5.0 4.0 3.8 3.2 4.0
0.9 0.7 1.5 1.5 1.6 2.7 2.9 2.9 2.7 3.0 4.0 3.5 nan nan nan nan nan nan nan nan 3.8 nan 2.5 4.5 6.4 6.0 2.7 2.0 2.0 2.4 2.9 4.4 5.0 4.3 6.1 8.4 9.4 7.1 6.3 4.4 3.6 4.8 2.9
4.3 5.1 4.8 4.8 4.5 3.6 3.1 2.8 2.5 3.3 3.7 3.7 3.6 2.1 2.3 nan nan nan nan 5.4 5.8 4.4 3.2 3.0 5.0 4.1 3.5 2.6 7.4 8.4 11.2 10.5 10.1 14.3 7.5 7.7 17.4 4.9 5.4 4.1 3.9 2.9 2.7
6.2 2.3 3.1 4.0 4.7 4.7 4.4 3.9 3.4 3.7 4.3 4.3 3.8 3.6 2.8 2.9 10.1 15.0 13.2 14.8 9.8 4.7 4.9 3.4 3.2 3.2 4.6 4.2 9.5 15.4 14.3 13.9 9.6 6.7 13.5 20.2 17.5 7.6 7.2 5.8 7.1 7.2 2.8
4.9 5.0 1.2 4.5 4.0 3.8 4.2 4.4 3.3 3.8 4.2 3.9 5.7 9.5 1.9 3.5 6.2 6.3 5.4 9.6 8.0 5.0 7.7 3.6 5.2 6.9 8.6 9.0 4.3 9.2 4.2 8.4 7.2 7.4 7.1 7.2 32.2 9.5 5.4 5.8 5.7 3.9 2.7
3.9 3.6 3.4 3.7 3.1 4.3 3.3 2.6 3.6 3.5 3.3 4.0 4.7 13.4 3.1 7.1 5.4 5.3 4.8 8.4 10.1 5.3 4.4 5.9 4.9 4.4 4.9 5.7 6.4 18.1 13.4 18.0 14.0 10.9 9.8 9.7 7.5 7.4 6.8 6.7 7.9 8.7 5.1
3.0 5.1 3.1 2.4 2.8 5.5 6.0 3.0 5.0 6.0 5.3 7.1 4.8 4.7 4.9 8.3 8.2 4.9 6.7 12.4 6.1 7.4 7.2 6.3 11.8 8.2 7.3 9.9 10.2 8.5 11.1 9.3 9.2 10.6 13.4 12.4 7.2 8.5 10.6 9.8 6.7 8.4 8.8
3.9 5.3 3.7 4.7 6.4 3.5 9.0 13.5 8.7 6.8 5.7 8.3 15.3 11.8 10.1 10.6 19.4 15.3 16.6 19.8 13.8 17.2 16.4 16.0 8.1 7.4 7.4 15.3 15.0 9.3 6.5 10.8 8.0 8.1 9.0 12.2 8.4 6.5 9.9 7.8 7.2 8.4 9.7
6.0 8.5 8.8 5.9 9.2 12.6 16.7 13.0 13.2 15.0 13.9 16.4 19.5 16.0 6.2 9.4 10.5 23.1 19.9 14.6 12.7 18.5 11.2 13.7 11.8 9.0 10.6 9.9 9.5 6.5 7.5 4.8 9.1 5.1 10.4 7.3 9.0 9.6 9.8 8.2 9.3 7.3 8.7
6.0 5.1 7.2 7.2 7.9 11.9 13.0 19.9 20.7 18.8 17.8 20.7 20.8 21.1 15.8 11.8 11.0 19.7 14.9 13.9 12.1 11.4 11.0 11.9 10.7 8.5 7.6 7.7 5.4 5.8 5.5 5.4 15.7 5.7 16.8 8.2 11.8 11.2 10.7 8.9 7.4 10.3 7.6
Water_Equivalent
0.00 0.00 0.00 0.00 0.00 0.00 0.00 0.00 0.00 0.00 0.00 0.00 0.00 0.00 0.00 0.00 0.00 0.00 0.00 0.00 0.00 0.00 0.00 0.00 0.00 0.00 0.00 0.00 0.00 0.00 0.00 0.00 0.00 0.00 0.00 0.00 0.00 0.00 0.00 0.00 0.00 0.00 0.00
0.00 0.00 0.00 0.00 0.00 0.00 0.00 0.00 0.00 0.00 0.00 0.00 0.00 0.00 0.00 0.00 0.00 0.00 0.00 0.00 0.00 0.00 0.00 0.00 0.00 0.00 0.00 0.00 0.00 0.00 0.00 0.00 0.00 0.00 0.00 0.00 0.00 0.00 0.00 0.00 0.00 0.00 0.00
0.00 0.00 0.00 0.00 0.00 0.00 0.00 0.00 0.00 0.00 0.00 0.00 0.00 0.00 0.00 0.00 0.00 0.00 0.00 0.00 0.00 0.00 0.00 0.00 0.00 0.00 0.00 0.00 0.00 0.00 0.00 0.00 0.00 0.00 0.00 0.00 0.00 0.00 0.00 0.00 0.00 0.00 0.00
0.00 0.00 0.00 0.00 0.00 0.00 0.00 0.00 0.00 0.00 0.00 0.00 0.00 0.00 0.00 0.00 0.00 0.00 0.00 0.00 0.00 0.00 0.00 0.00 0.00 0.00 0.00 0.00 0.00 0.00 0.00 0.00 0.00 0.00 0.00 0.00 0.00 0.00 0.00 0.00 0.00 0.00 0.00
0.00 0.00 0.00 0.00 0.00 0.00 0.00 0.00 0.00 0.00 0.00 0.00 0.00 0.00 0.00 0.00 0.00 0.00 0.00 0.00 0.00 0.00 0.00 0.00 0.00 nan nan nan 0.00 0.00 0.00 0.00 0.00 0.00 0.00 0.00 0.00 0.00 0.00 0.00 0.00 0.00 0.00
0.00 0.00 0.00 0.00 0.00 0.00 0.00 0.00 0.00 0.00 0.00 0.00 0.00 0.00 0.00 0.00 nan nan 0.00 0.00 0.00 0.00 0.00 0.00 0.00 0.00 0.00 nan nan nan nan 0.00 0.00 0.00 0.00 0.00 0.00 0.00 0.00 0.00 0.00 0.01 0.01
0.00 0.00 0.00 0.00 0.00 0.00 0.00 0.00 0.00 0.00 0.00 0.00 0.00 0.00 0.00 0.00 nan nan nan 0.00 0.00 0.00 0.00 0.00 0.00 0.00 nan 0.00 nan nan nan nan nan 0.00 0.00 0.00 0.00 0.00 0.00 0.00 0.01 0.01 0.00
0.00 0.00 0.00 0.00 0.00 0.00 0.00 0.00 0.00 0.00 0.00 0.00 0.00 0.00 0.00 0.00 nan nan nan 0.00 0.00 0.00 0.00 0.00 0.00 0.00 0.00 0.00 0.00 0.00 0.00 0.00 0.00 0.00 0.00 0.00 0.00 0.00 0.00 0.00 0.00 0.00 0.01
0.00 0.00 0.00 0.00 0.00 0.00 0.00 0.00 0.00 0.00 0.00 0.00 0.00 0.00 0.00 0.00 nan nan 0.00 0.00 0.00 0.00 0.00 0.00 0.00 0.00 nan nan 0.00 0.00 0.00 0.00 nan nan nan nan nan nan nan 0.07 0.14 0.20 0.35
0.00 0.00 0.00 0.00 0.00 0.00 0.00 0.00 0.00 0.00 0.00 0.00 0.00 0.00 nan 0.00 nan nan nan 0.08 0.01 0.09 0.00 0.01 nan 0.01 nan nan 0.01 0.01 0.02 0.00 0.00 0.00 0.00 0.00 nan nan nan 0.00 0.01 0.31 0.22
0.00 0.00 0.00 0.00 0.00 0.00 0.00 0.00 0.00 0.00 0.00 0.00 0.00 0.00 0.00 0.00 0.00 nan nan 0.05 0.13 0.14 0.10 0.10 0.09 nan nan nan nan 0.01 0.02 0.00 0.00 0.02 0.00 0.00 0.00 0.00 0.00 0.00 0.00 0.04 0.21
0.00 0.00 0.00 0.00 0.00 0.00 0.00 0.00 0.00 0.00 0.00 0.00 0.04 0.06 0.09 0.00 nan nan nan nan nan 0.23 0.07 0.10 0.14 nan nan nan 0.01 nan nan 0.03 0.29 0.27 0.22 0.15 0.14 0.10 0.00 0.00 0.00 0.00 0.00
0.00 0.00 0.00 0.00 0.00 0.00 0.00 0.00 0.00 0.00 0.06 0.03 0.10 0.17 0.11 0.12 0.11 nan nan nan nan 0.32 0.22 0.17 nan nan nan 0.05 nan nan 0.00 0.28 0.41 0.56 0.34 0.19 0.10 0.02 0.00 0.05 0.01 0.02 0.03
0.00 0.00 0.00 0.00 0.00 0.00 0.00 0.00 0.00 0.06 0.11 0.10 0.12 0.12 0.12 0.14 0.22 0.20 0.20 0.15 0.03 0.17 0.03 0.18 0.00 0.15 0.00 0.05 0.09 0.14 0.17 0.19 0.25 0.37 0.27 0.14 0.13 0.21 0.26 0.28 0.41 0.30 0.30
0.00 0.00 0.00 0.02 0.00 0.00 0.00 0.00 0.05 0.00 0.04 0.11 0.12 0.12 0.59 0.61 0.24 0.26 0.26 0.32 0.35 0.20 0.41 0.62 0.33 0.24 0.23 0.18 0.21 0.20 0.22 0.23 0.38 0.45 0.51 0.42 0.34 0.25 0.26 0.20 0.23 0.27 0.59
0.00 0.02 0.06 0.08 0.06 0.00 0.01 0.02 nan nan nan nan nan 0.50 0.65 nan nan nan nan nan nan nan 0.40 0.59 1.01 1.09 0.63 0.28 0.40 0.35 0.37 0.38 0.39 0.45 0.71 0.53 0.58 0.69 0.68 0.67 0.57 0.49 0.55
0.01 0.00 0.09 0.09 0.11 0.11 0.13 0.12 0.17 0.24 nan nan nan nan nan nan nan nan nan nan nan nan 0.87 0.69 1.41 1.52 0.78 0.31 0.35 0.35 0.50 0.45 0.17 0.65 0.77 0.87 0.92 0.78 0.83 0.67 0.67 0.57 0.67
0.14 0.22 0.26 0.26 0.27 0.42 0.47 0.45 0.43 0.48 0.67 0.58 nan nan nan nan nan nan nan nan 0.60 nan 0.42 0.65 0.92 0.89 0.40 0.29 0.29 0.36 0.44 0.67 0.77 0.65 0.93 1.26 1.38 1.02 1.01 0.68 0.60 0.75 0.48
0.93 1.00 0.89 0.87 0.79 0.61 0.54 0.48 0.44 0.56 0.60 0.57 0.53 0.37 0.54 nan nan nan nan 0.78 0.77 0.57 0.42 0.38 0.69 0.56 0.48 0.36 1.12 1.26 1.65 1.54 1.51 2.01 1.13 1.17 2.67 0.77 0.89 0.66 0.63 0.60 0.57
0.79 0.56 0.52 0.60 0.69 0.71 0.67 0.59 0.51 0.58 0.65 0.63 0.55 0.50 0.35 0.44 1.45 2.21 1.94 2.16 1.35 0.61 0.64 0.43 0.43 0.43 0.66 0.61 1.40 2.30 2.11 2.06 1.40 1.00 1.98 3.06 2.80 1.17 1.03 0.87 1.08 1.10 0.45
0.59 0.65 0.41 0.64 0.55 0.55 0.64 0.68 0.50 0.58 0.62 0.56 0.84 1.47 0.61 0.50 0.91 0.92 0.74 1.36 1.11 0.68 1.07 0.49 0.73 0.99 1.25 1.33 0.61 1.31 0.59 1.23 1.05 1.07 1.02 1.07 5.21 1.29 0.84 0.91 0.92 0.66 0.45
0.50 0.47 0.49 0.57 0.49 0.71 0.51 0.44 0.59 0.57 0.53 0.62 0.74 2.44 1.04 1.01 0.77 0.77 0.73 1.32 1.65 0.76 0.61 0.82 0.66 0.59 0.67 0.78 0.89 2.71 1.86 2.51 2.05 1.55 1.35 1.28 1.06 1.13 1.01 1.02 1.15 1.24 0.78
0.46 0.93 0.54 0.38 0.45 1.69 1.05 0.50 0.82 1.05 0.89 1.20 0.77 0.72 0.76 1.24 1.21 0.72 1.02 2.06 0.99 1.28 1.15 0.92 1.81 1.12 1.04 1.41 1.43 1.18 1.49 1.26 1.31 1.51 1.81 1.76 1.03 1.19 1.58 1.41 0.99 1.16 1.13
0.69 0.99 0.65 0.86 1.14 0.58 1.46 2.18 1.42 2.16 0.98 1.39 2.61 1.96 1.66 1.70 3.20 2.50 2.64 3.39 2.20 2.87 2.75 2.63 1.15 0.95 0.95 2.50 2.46 1.33 0.86 1.45 1.10 1.08 1.22 1.62 1.19 1.18 1.45 1.13 1.08 1.12 1.29
1.12 1.66 1.68 1.09 1.68 2.23 2.92 2.12 2.21 2.59 2.36 2.82 3.25 2.61 1.00 1.58 1.66 3.92 3.10 2.15 1.81 2.82 1.58 1.95 1.65 1.22 1.46 1.29 1.20 0.78 1.12 1.60 1.59 1.68 1.33 0.96 1.21 1.22 1.27 1.14 1.33 1.09 1.16
1.18 0.98 1.35 1.34 1.43 2.16 2.21 3.26 3.32 2.98 2.85 3.40 3.48 3.58 2.58 1.82 1.71 3.18 2.19 1.99 1.63 1.54 1.47 1.60 1.42 1.08 0.95 0.98 0.65 1.75 1.83 1.77 1.93 1.87 2.06 1.12 1.52 1.51 1.49 1.24 1.05 1.36 0.99
SL_Ratio
nan nan nan nan nan nan nan nan nan nan nan nan nan nan nan nan nan nan nan nan nan nan nan nan nan nan nan nan nan nan nan nan nan nan nan nan nan nan nan nan nan nan nan
nan nan nan nan nan nan nan nan nan nan nan nan nan nan nan nan nan nan nan nan nan nan nan nan nan nan nan nan nan nan nan nan nan nan nan nan nan nan nan nan nan nan nan
nan nan nan nan nan nan nan nan nan nan nan nan nan nan nan nan nan nan nan nan nan nan nan nan nan nan nan nan nan nan nan nan nan nan nan nan nan nan nan nan nan nan nan
nan nan nan nan nan nan nan nan nan nan nan nan nan nan nan nan nan nan nan nan nan nan nan nan nan nan nan nan nan nan nan nan nan nan nan nan nan nan nan nan nan nan nan
nan nan nan nan nan nan nan nan nan nan nan nan nan nan nan nan nan nan nan nan nan nan nan nan nan nan nan nan nan nan nan nan nan nan nan nan nan nan nan nan nan nan nan
nan nan nan nan nan nan nan nan nan nan nan nan nan nan nan nan nan nan nan nan nan nan nan nan nan nan nan nan nan nan nan nan nan 5.0 nan nan nan nan nan 5.0 nan 5.4 5.5
nan nan nan nan nan nan nan nan nan nan nan nan nan nan nan nan nan nan nan nan nan nan nan nan nan nan nan nan nan nan nan nan nan nan nan nan nan nan 5.0 10.0 5.4 5.0 nan
nan nan nan nan nan nan nan nan nan nan nan nan nan nan nan nan nan nan nan nan nan nan nan nan nan nan nan nan 4.0 3.0 2.9 0.0 0.0 nan nan nan nan nan nan nan 5.0 6.0 4.2
nan nan nan nan nan nan nan nan nan nan nan nan nan nan nan nan nan nan nan nan nan nan nan nan nan nan nan nan 3.3 5.0 nan nan nan nan nan nan nan nan nan 3.8 4.4 5.2 4.9
nan nan nan nan nan nan nan nan nan nan nan nan nan nan nan nan nan nan nan 3.5 4.1 4.2 0.0 3.9 nan 2.4 nan nan 3.6 3.9 5.0 nan nan nan nan nan nan nan nan nan 5.1 5.4 5.2
nan nan nan nan nan nan nan nan nan nan nan nan nan 0.0 nan nan nan nan nan 4.1 4.4 4.8 4.4 4.8 4.9 nan nan nan nan 4.3 5.0 nan 5.0 4.4 nan nan nan nan nan nan nan 5.0 5.3
nan nan nan nan nan nan nan nan nan nan nan 3.8 4.3 4.2 4.0 2.7 nan nan nan nan nan 5.1 4.8 4.5 4.4 nan nan nan 3.8 nan nan 4.5 4.7 5.0 4.9 4.6 4.5 4.3 nan nan nan nan 4.2
nan nan nan nan nan nan nan nan nan nan 3.6 3.2 4.1 4.3 4.2 4.0 4.0 nan nan nan nan 4.8 4.7 4.7 nan nan nan 3.0 nan nan nan 4.6 4.8 5.6 5.4 5.3 4.7 4.6 5.0 4.4 4.2 3.8 4.5
nan nan nan nan nan nan nan nan nan 3.7 3.9 4.1 4.2 4.5 4.3 4.8 4.7 4.6 4.6 4.7 4.8 4.9 4.6 4.5 0.0 4.1 5.0 4.6 4.5 4.4 4.5 4.6 5.0 5.6 5.6 5.2 4.7 4.5 4.5 3.6 4.1 4.8 5.2
nan nan nan 3.5 nan nan nan nan 3.7 0.0 3.8 4.0 4.2 4.2 5.3 5.4 5.2 5.1 5.4 5.3 5.4 5.4 5.0 5.5 5.4 5.3 5.4 4.9 4.8 4.7 4.7 4.8 5.1 5.5 6.0 6.0 5.6 5.1 4.9 4.4 4.5 5.0 5.6
5.0 3.3 3.6 3.8 3.8 0.0 5.9 6.3 nan nan nan nan nan 4.8 5.2 nan nan nan nan nan nan nan 5.8 6.0 6.2 6.0 6.1 5.5 5.6 5.6 5.6 5.3 5.9 5.9 6.3 6.1 6.1 6.0 5.4 4.9 4.6 5.7 6.1
2.3 2.2 3.7 3.7 4.4 4.7 4.6 4.5 5.1 6.5 nan nan nan nan nan nan nan nan nan nan nan nan 6.2 6.4 6.9 6.8 6.5 6.3 6.3 6.4 6.4 6.2 6.8 6.1 6.2 6.4 6.4 6.3 6.1 5.9 5.7 5.7 5.9
6.3 3.0 5.7 5.8 5.9 6.4 6.3 6.4 6.3 6.2 5.9 6.1 nan nan nan nan nan nan nan nan 6.4 nan 6.0 7.0 7.0 6.8 6.8 6.8 6.7 6.7 6.5 6.6 6.5 6.6 6.6 6.7 6.8 6.9 6.2 6.4 6.0 6.5 5.9
4.6 5.1 5.4 5.6 5.7 5.9 5.8 5.8 5.7 5.9 6.1 6.5 6.8 5.6 4.3 nan nan nan nan 7.0 7.6 7.7 7.6 7.9 7.3 7.3 7.2 7.1 6.6 6.7 6.8 6.8 6.7 7.1 6.6 6.6 6.5 6.3 6.1 6.1 6.2 4.9 4.7
7.9 4.0 6.0 6.6 6.8 6.7 6.6 6.6 6.8 6.4 6.6 6.8 7.0 7.2 7.8 6.5 7.0 6.8 6.8 6.9 7.3 7.8 7.7 7.9 7.6 7.3 7.0 6.9 6.8 6.7 6.8 6.7 6.9 6.7 6.8 6.6 6.2 6.5 7.0 6.7 6.5 6.5 6.2
8.2 7.7 3.0 7.0 7.3 7.0 6.6 6.4 6.6 6.5 6.7 6.9 6.8 6.4 3.0 6.9 6.8 6.9 7.3 7.1 7.3 7.4 7.2 7.4 7.2 7.0 6.8 6.8 7.0 7.0 7.2 6.9 6.8 7.0 6.9 6.8 6.2 7.3 6.4 6.4 6.2 6.0 6.1
7.8 7.6 7.0 6.4 6.4 6.1 6.4 6.0 6.0 6.2 6.2 6.5 6.3 5.5 3.0 7.0 7.1 6.9 6.6 6.3 6.1 7.0 7.2 7.2 7.3 7.4 7.3 7.4 7.2 6.7 7.2 7.2 6.8 7.0 7.2 7.5 7.1 6.5 6.8 6.6 6.9 7.0 6.6
6.6 5.5 5.8 6.4 6.2 3.2 5.7 6.1 6.1 5.8 6.0 5.9 6.2 6.6 6.5 6.7 6.8 6.8 6.5 6.0 6.1 5.8 6.2 6.9 6.5 7.3 7.1 7.0 7.1 7.2 7.4 7.4 7.0 7.0 7.4 7.1 7.0 7.2 6.7 6.9 6.8 7.2 7.8
5.7 5.3 5.6 5.5 5.6 6.0 6.2 6.2 6.1 3.2 5.8 6.0 5.9 6.0 6.1 6.2 6.1 6.1 6.3 5.9 6.3 6.0 6.0 6.1 7.0 7.8 7.8 6.1 6.1 6.9 7.6 7.4 7.3 7.5 7.4 7.5 7.1 5.5 6.8 7.0 6.7 7.5 7.6
5.3 5.1 5.3 5.5 5.5 5.6 5.7 6.1 6.0 5.8 5.9 5.8 6.0 6.2 6.2 6.0 6.3 5.9 6.4 6.8 7.0 6.5 7.1 7.0 7.2 7.4 7.3 7.7 8.0 8.3 6.7 3.0 5.7 3.0 7.8 7.6 7.5 7.8 7.7 7.2 7.0 6.7 7.5
5.1 5.2 5.3 5.4 5.5 5.5 5.9 6.1 6.2 6.3 6.3 6.1 6.0 5.9 6.1 6.5 6.4 6.2 6.8 7.0 7.4 7.4 7.5 7.4 7.5 7.9 8.0 7.8 8.4 3.3 3.0 3.0 8.1 3.0 8.1 7.3 7.8 7.4 7.2 7.1 7.0 7.5 7.7